Miscellaneous Local Product
Issued by NWS North Platte, NE

Home | Current Version | Previous Version | Text Only | Print | Product List | Glossary On
Versions: 1 2 3 4 5 6 7 8 9 10 11 12 13 14 15 16 17 18 19 20 21 22 23 24 25 26 27 28 29 30 31 32 33 34 35 36 37 38 39 40 41 42 43 44 45 46 47 48 49 50
000
AXUS43 KLBF 200210
MISLBF


WESTERN AND NORTH CENTRAL NEBRASKA HOURLY WEATHER ROUNDUP
NATIONAL WEATHER SERVICE NORTH PLATTE NE
900 PM CDT FRI SEP 19 2014

***STATIONS NOT REPORTING VARIABLES SUCH AS SKY/WEATHER OR
PRESSURE ARE PROVIDED BY THE NEBRASKA DEPARTMENT OF
ROADS...RAWS...AND APRS NETWORKS...AND ARE NOT UNDER
NATIONAL WEATHER SERVICE QUALITY CONTROL***

...OBSERVATIONS IN AND NEAR THE EASTERN PANHANDLE OF NEBRASKA...

CITY           SKY/WX    TMP DP  RH WIND       PRES   REMARKS
PINE RIDGE     CLEAR     64  55  72 E7        29.89R
CHADRON        CLEAR     71  51  49 NE6       29.88R
ALLIANCE       MOCLDY    67  53  61 NE6       29.92R
WHITECLAY        N/A     64  53  68 CALM        N/A
RUSHVILLE        N/A     69  44  39 E8          N/A
CRESCENT LAKE    N/A     75  53  45 N5          N/A
LISCO            N/A     74  54  48 N5          N/A
BIG SPRINGS      N/A     74  60  62 CALM        N/A
$$

...OBSERVATIONS IN NORTH CENTRAL NEBRASKA...

CITY           SKY/WX    TMP DP  RH WIND       PRES   REMARKS
VALENTINE      MOCLDY    74  56  53 NE3       29.84R
THEDFORD       PTCLDY    75  59  58 CALM      29.85R
AINSWORTH      CLOUDY    73  60  65 NE6       29.84R
O`NEILL        PTCLDY    75  65  70 CALM      29.79R
ORD            CLEAR     76  63  64 S8        29.77R
BROKEN BOW     CLEAR     78  60  53 S8        29.80R
SPRINGVIEW       N/A     72  63  73 CALM        N/A
ROSE             N/A     80  65  60 N5          N/A
NEWPORT          N/A     76  61  59 CALM        N/A
COMSTOCK         N/A     82  66  59 S8          N/A
CHAMBERS         N/A     72  62  69 CALM        N/A
$$

...OBSERVATIONS IN SOUTHWEST NEBRASKA AND FAR NORTHEAST COLORADO...

CITY           SKY/WX    TMP DP  RH WIND       PRES   REMARKS
WRAY           FAIR      77  52  41 CALM      29.89R
HOLYOKE        FAIR      79  52  38 N7        29.91R
IMPERIAL       MOCLDY    74  56  53 S3        29.86R
OGALLALA       CLOUDY    71  61  69 W3        29.87R
NORTH PLATTE   PTCLDY    74  59  59 S6        29.82R
MCCOOK         CLEAR     79  59  50 S14       29.84R
LEXINGTON      CLEAR     74  63  66 S10       29.83R
PAXTON           N/A     78  61  55 CALM        N/A
SUTHERLAND       N/A     78  55  44 W5          N/A
BRADY            N/A     77  61  57 CALM        N/A
GOTHENBURG       N/A     83  56  39 S6          N/A
CALLAWAY         N/A     73  63  70 S9          N/A
$$

...SOME WEATHER OBSERVATIONS FROM AROUND THE REGION...

CITY           SKY/WX    TMP DP  RH WIND       PRES   REMARKS
DENVER         MOCLDY    71  44  37 S12       30.00R
LARAMIE        PTCLDY    62  39  42 W8        30.16R
CHEYENNE       MOCLDY    73  40  30 NW3       30.08R
SCOTTSBLUFF    PTCLDY    71  51  49 NE5       29.92R
RAPID CITY     CLEAR     69  47  45 N13       29.91R
PIERRE         CLEAR     71  53  52 N9        29.77R
WINNER         FAIR      77  55  46 NW5       29.80R
SIOUX FALLS    MOCLDY    75  66  73 NW7       29.73R
OMAHA          PTCLDY    77  69  76 S18       29.81R
GRAND ISLAND   CLEAR     77  63  61 S12       29.82R
KANSAS CITY    PTCLDY    71  67  87 S9        29.94R
WICHITA        PTCLDY    78  65  63 SE15      29.93R
HAYS           CLEAR     77  61  57 S14       29.89R
LIBERAL        MOCLDY    79  57  47 S14       29.97R
GOODLAND       CLEAR     75  60  59 S14       29.92R
$$



USA.gov is the U.S. government's official web portal to all federal, state and local government web resources and services.